STARLINK-1292, 45394

Orbit data source: Space-Track

STARLINK-1292, 45394 is a payload satellite owned by SpaceX/Seattle (US) in LEO that was launched on Wed, 18 Mar 2020 UTC via an FALCON 9 launch vehicle from the Air Force Eastern Test Range (AFETR). Payload-class satellites include a variety of spacecraft equipped with specific instruments for various scientific and technological missions. These include communications satellites like Starlink; space stations such as the ISS; scientific satellites like the Hubble; Earth observation satellites from companies like Planet Labs, Umbra, and HawkEye 360; GPS; miniature CubeSats for education and research; and military/defense satellites.

Loading next visibility...
Identifier
45394, 2020-019AL
Orbit
LEO
Country
Flag of USUS
Related business
Manufacturer
SpaceX/Seattle
Mission
Partially operational Commercial Communications
Bus & Motor
STARLINK, Unknown motor
Mass
260 kg wet, ~248 kg dry
Launch date (UTC)
2020-03-18 (6 years ago)
Launch vehicle
FALCON 9
Launch site
Air Force Eastern Test Range (AFETR)
Object type
Payload
Rocket body
Debris
Shape & HBR
Box + 1 Pan, 10.1 m
Radar Cross Section
13.562 m², Large (>1 m²)

Expand to show TLE details & history
Last TLE update: 3 hours ago

TLE from 3 hours ago
0 STARLINK-1292
1 45394U 20019AL  25289.25002315  .00307342  00000-0  12459-2 0  9993
2 45394  53.0481  34.3109 0006920 309.6256  84.0722 15.84887100  5882
Epoch: 2025-10-16T06:00Z
TLE epoch observation values (Epoch: 2025-10-16T06:00:02.000Z)
Latitude
26.45615°
Longitude
-58.85724°
Altitude
317.333 km
Speed
7.722 km/s
True Right ascension
03h 44m 39s
True Declination
26° 18' 37"
Sunlit
Object was in full shadow at epoch
Visualization orbit readout
Latitude
Unknown
Longitude
Unknown
Altitude
Unknown
Speed
Unknown
Apparent Right ascension
Unknown
Apparent Declination
Unknown
Sunlit
N/A
Visualization observer readout
Local Sidereal Time
03:21:59
Azimuth
Unknown
Elevation
Unknown
Doppler factor
Unknown
Orbital elements
Apogee altitude
321.556 km
Perigee altitude
312.29 km
Semi-major axis
6,695.06 km
Eccentricity
0.00069
Inclination
53.0481°
RAAN
34.3109°
Arg. of periapsis
309.6256°
True anomaly
84.15108°
Mean anomaly
84.0722°
Eccentric anomaly
84.11164°
Mean motion
3.96197 °/min
Orbital period
90.86 mins
BSTAR
0.0012459
Loading maneuver chart data...
Computing Atmospheric mass density...

Documentation

Showing up to 5 results
|